Mullan Pass, ID

10:33 PM PDT on May 26, 2018 (GMT -0700)
Mullan Pass

Weather History for KMLP - October, 2012

Change the Weather History Date:

Sunday, October 21, 2012

  Actual Average (K3TH) Record (K3TH)
Temperature  
Mean Temperature 27 °F -  
Max Temperature 30 °F 53 °F 66 °F (1999)
Min Temperature 24 °F 33 °F 28 °F (1996)
Degree Days  
Heating Degree Days 38    
Moisture  
Dew Point 24 °F    
Average Humidity 92    
Maximum Humidity 100    
Minimum Humidity 78    
Precipitation  
Precipitation 0.06 in - - ()
Sea Level Pressure  
Sea Level Pressure 29.84 in    
Wind  
Wind Speed 5 mph (SSW)    
Max Wind Speed 10 mph    
Max Gust Speed 22 mph    
Visibility 6 miles    
Events Fog , Snow    
Averages and records for this station are not official NWS values.
T = Trace of Precipitation, MM = Missing Value Source: NWS Daily Summary

Daily Weather History Graph

Daily Weather History Graph

Search for Another Location

Airport or City:

Astronomy

Oct. 21, 2012 Rise Set
Actual Time 7:10 AM PDT 5:42 PM PDT
Civil Twilight 6:39 AM PDT 6:14 PM PDT
Nautical Twilight 6:03 AM PDT 6:49 PM PDT
Astronomical Twilight 5:28 AM PDT 7:25 PM PDT
Moon 1:42 PM PDT (10/21) 11:35 PM PDT (10/21)
Length of Visible Light 11h 34m
Length of Day
10h 31m
Waxing Crescent, 46% of the Moon is Illuminated
Oct 21
Waxing Crescent
Oct 21
First Quarter
Oct 29
Full
Nov 6
Last Quarter
Nov 13
New

Hourly Weather History & Observations

Time (PDT) Temp. Windchill Dew Point Humidity Pressure Visibility Wind Dir Wind Speed Gust Speed Precip Events Conditions
12:04 AM 24.8 °F 14.6 °F 23.0 °F 93% 29.78 in 9.0 mi SW 10.4 mph 21.9 mph 0.00 in   Overcast
12:49 AM 24.8 °F 17.9 °F 23.0 °F 93% 29.78 in 1.8 mi Variable 5.8 mph - 0.00 in Snow Light Snow
12:53 AM 25.0 °F 17.1 °F 24.1 °F 96% 29.87 in 1.2 mi Variable 6.9 mph - 0.00 in Snow Light Snow
12:59 AM 24.8 °F 16.9 °F 24.8 °F 100% 29.78 in 2.0 mi Variable 6.9 mph - 0.00 in Snow Light Snow
1:20 AM 24.8 °F 20.5 °F 24.8 °F 100% 29.78 in 2.0 mi Variable 3.5 mph - 0.01 in Snow Light Snow
1:28 AM 24.8 °F 19.1 °F 24.8 °F 100% 29.79 in 7.0 mi Variable 4.6 mph - 0.01 in Snow Light Snow
1:50 AM 24.8 °F 19.1 °F 24.8 °F 100% 29.78 in 2.5 mi Variable 4.6 mph - 0.01 in Snow Light Snow
1:53 AM 25.0 °F 18.1 °F 24.1 °F 96% 29.88 in 3.0 mi SW 5.8 mph - 0.01 in Snow Light Snow
2:01 AM 24.8 °F 17.9 °F 24.8 °F 100% 29.78 in 2.5 mi Variable 5.8 mph - 0.00 in Snow Light Snow
2:13 AM 24.8 °F 20.5 °F 24.8 °F 100% 29.78 in 1.8 mi Variable 3.5 mph - 0.00 in Snow Light Snow
2:38 AM 24.8 °F 20.5 °F 24.8 °F 100% 29.78 in 1.0 mi Variable 3.5 mph - 0.01 in Snow Light Snow
2:48 AM 24.8 °F 20.5 °F 24.8 °F 100% 29.78 in 1.5 mi Variable 3.5 mph - 0.01 in Snow Light Snow
2:53 AM 25.0 °F 19.3 °F 24.1 °F 96% 29.88 in 1.2 mi Variable 4.6 mph - 0.01 in Snow Light Snow
2:59 AM 24.8 °F 17.9 °F 24.8 °F 100% 29.78 in 2.0 mi SSW 5.8 mph - 0.00 in Snow Light Snow
3:16 AM 24.8 °F 16.1 °F 24.8 °F 100% 29.78 in 1.5 mi SW 8.1 mph - 0.00 in Snow Light Snow
3:26 AM 24.8 °F 20.5 °F 24.8 °F 100% 29.78 in 2.5 mi Variable 3.5 mph - 0.00 in Snow Light Snow
3:48 AM 24.8 °F 17.9 °F 24.8 °F 100% 29.78 in 4.0 mi Variable 5.8 mph - 0.00 in Snow Light Snow
3:53 AM 25.0 °F 19.3 °F 24.1 °F 96% 29.89 in 5.0 mi SW 4.6 mph - 0.00 in Snow Light Snow
4:08 AM 24.8 °F 17.9 °F 24.8 °F 100% 29.79 in 1.8 mi Variable 5.8 mph - 0.00 in Snow Light Snow
4:17 AM 24.8 °F 20.5 °F 24.8 °F 100% 29.79 in 2.0 mi Variable 3.5 mph - 0.00 in Snow Light Snow
4:37 AM 24.8 °F 20.5 °F 23.0 °F 93% 29.79 in 6.0 mi Variable 3.5 mph - 0.01 in Snow Light Snow
4:53 AM 24.1 °F 18.2 °F 24.1 °F 100% 29.91 in 8.0 mi Variable 4.6 mph - 0.01 in   Overcast
5:53 AM 24.1 °F 18.2 °F 24.1 °F 100% 29.91 in 9.0 mi Variable 4.6 mph - 0.00 in Snow Light Snow
6:11 AM 24.8 °F 16.9 °F 23.0 °F 93% 29.80 in 10.0 mi Variable 6.9 mph - N/A   Overcast
6:53 AM 24.1 °F 18.2 °F 23.0 °F 96% 29.91 in 10.0 mi SW 4.6 mph - 0.00 in   Overcast
7:53 AM 24.1 °F 18.2 °F 21.9 °F 91% 29.93 in 10.0 mi WSW 4.6 mph - N/A   Mostly Cloudy
8:29 AM 24.8 °F 20.5 °F 23.0 °F 93% 29.82 in 10.0 mi SW 3.5 mph - N/A   Overcast
8:38 AM 24.8 °F 19.1 °F 24.8 °F 100% 29.82 in 10.0 mi SW 4.6 mph - N/A   Overcast
8:53 AM 26.1 °F 21.9 °F 21.9 °F 84% 29.93 in 10.0 mi Variable 3.5 mph - N/A   Overcast
9:29 AM 26.6 °F - 23.0 °F 86% 29.83 in 10.0 mi Calm Calm - N/A   Mostly Cloudy
9:44 AM 26.6 °F 19.1 °F 21.2 °F 80% 29.83 in 10.0 mi SW 6.9 mph - N/A   Mostly Cloudy
9:53 AM 27.0 °F - 23.0 °F 85% 29.94 in 10.0 mi Calm Calm - N/A   Mostly Cloudy
10:05 AM 26.6 °F - 24.8 °F 93% 29.83 in 10.0 mi Calm Calm - N/A   Overcast
10:19 AM 26.6 °F - 24.8 °F 93% 29.83 in 10.0 mi Calm Calm - N/A   Overcast
10:53 AM 27.0 °F 21.6 °F 24.1 °F 89% 29.94 in 10.0 mi Variable 4.6 mph - N/A   Overcast
11:27 AM 26.6 °F 21.2 °F 24.8 °F 93% 29.84 in 10.0 mi Variable 4.6 mph - N/A   Overcast
11:29 AM 26.6 °F 22.6 °F 24.8 °F 93% 29.84 in 10.0 mi Variable 3.5 mph - N/A   Overcast
11:37 AM 26.6 °F - 24.8 °F 93% 29.84 in 10.0 mi Calm Calm - N/A   Overcast
11:53 AM 27.0 °F - 24.1 °F 89% 29.94 in 9.0 mi Calm Calm - 0.00 in Snow Light Snow
12:04 PM 26.6 °F 22.6 °F 24.8 °F 93% 29.83 in 9.0 mi Variable 3.5 mph - 0.00 in Snow Light Snow
12:53 PM 27.0 °F 23.0 °F 23.0 °F 85% 29.93 in 4.0 mi Variable 3.5 mph - 0.00 in Snow Light Snow
1:49 PM 30.2 °F 25.4 °F 26.6 °F 86% 29.81 in 2.5 mi Variable 4.6 mph - 0.00 in Snow Light Snow
1:53 PM 30.0 °F - 25.0 °F 82% 29.90 in 2.5 mi Calm Calm - 0.00 in Snow Light Snow
2:00 PM 28.4 °F - 24.8 °F 86% 29.81 in 8.0 mi Calm Calm - 0.00 in Snow Light Snow
2:11 PM 28.4 °F 23.3 °F 23.0 °F 80% 29.81 in 1.8 mi Variable 4.6 mph - 0.00 in Snow Light Snow
2:14 PM 26.6 °F 20.0 °F 24.8 °F 93% 29.81 in 0.8 mi SSW 5.8 mph - 0.00 in Snow Light Snow
2:25 PM 26.6 °F 18.2 °F 24.8 °F 93% 29.81 in 0.2 mi SW 8.1 mph - 0.00 in Fog , Snow Heavy Snow
2:38 PM 26.6 °F 21.2 °F 26.6 °F 100% 29.81 in 0.2 mi Variable 4.6 mph - 0.03 in Fog , Snow Heavy Snow
2:48 PM 28.4 °F - 26.6 °F 93% 29.81 in 1.2 mi Calm Calm - 0.03 in Snow Light Snow
2:50 PM 28.4 °F - 26.6 °F 93% 29.81 in 2.0 mi Calm Calm - 0.03 in Snow Light Snow
2:53 PM 28.0 °F - 26.1 °F 92% 29.90 in 5.0 mi Calm Calm - 0.03 in Snow Light Snow
3:08 PM 30.2 °F 26.7 °F 26.6 °F 86% 29.81 in 10.0 mi Variable 3.5 mph - 0.00 in   Scattered Clouds
3:53 PM 28.0 °F - 26.1 °F 92% 29.90 in 9.0 mi Calm Calm - 0.00 in   Mostly Cloudy
4:53 PM 28.9 °F 25.2 °F 25.0 °F 85% 29.90 in 10.0 mi Variable 3.5 mph - N/A   Clear
5:53 PM 27.0 °F 23.0 °F 24.1 °F 89% 29.90 in 10.0 mi SSE 3.5 mph - N/A   Clear
6:53 PM 26.1 °F 21.9 °F 24.1 °F 92% 29.91 in 10.0 mi SSE 3.5 mph - N/A   Clear
7:53 PM 27.0 °F - 23.0 °F 85% 29.90 in 10.0 mi Calm Calm - N/A   Clear
8:53 PM 27.0 °F 23.0 °F 21.9 °F 81% 29.88 in 10.0 mi SSE 3.5 mph - N/A   Clear
9:53 PM 27.0 °F 20.5 °F 21.0 °F 78% 29.89 in 10.0 mi SSE 5.8 mph - N/A   Clear
10:53 PM 27.0 °F 21.6 °F 21.9 °F 81% 29.89 in 10.0 mi SSE 4.6 mph - N/A   Clear
11:53 PM 26.1 °F 18.4 °F 21.0 °F 81% 29.88 in 10.0 mi SE 6.9 mph - N/A   Clear